DW3089 Kuortane FI current weather conditions

sailwx.info

Wind from 288

Air temperature 3.3° C
Dewpoint 2.8° C

Last reported at 2019-Sep-22 01:00 UTC.
Time now 2019-Sep-22 01:33 UTC

Location: N 62°48' E 023°31'.
View on Google Maps.

See reports from other nearby stations

  
Tides and Currents Weather Stations Pressure Air Temp Water Temp Dewpoint Dewpoint Depression Visibility Wind Speed Wind Dir Waves Ship Positions
date/time (UTC)wind fromknots sea level pressurealtimeterstation pressurevisibilityair tempwater tempwave heightnotes
2019-Sep-22 01:00 288 3.3
2019-Sep-22 00:55 288 3.3
2019-Sep-22 00:50 288 0 gusting 2 3.3
2019-Sep-22 00:45 288 3.3
2019-Sep-22 00:35 288 3.3
2019-Sep-22 00:25 288 3.3
2019-Sep-22 00:15 288 3.3
2019-Sep-22 00:10 288 3.3
2019-Sep-22 00:00 288 3.3
2019-Sep-21 23:55 288 3.3
2019-Sep-21 23:45 288 3.3
2019-Sep-21 23:35 288 3.3
2019-Sep-21 23:30 288 3.3
2019-Sep-21 23:25 288 3.3
2019-Sep-21 23:15 288 3.3
2019-Sep-21 23:10 288 2.8
2019-Sep-21 23:05 288 2.8
2019-Sep-21 23:00 288 0 gusting 2 2.8
2019-Sep-21 22:50 288 0 gusting 1 2.8
2019-Sep-21 22:45 288 2.8
2019-Sep-21 22:35 288 0 gusting 1 2.8
2019-Sep-21 22:25 288 3.3
2019-Sep-21 22:20 288 0 gusting 2 3.3
2019-Sep-21 22:10 288 3.3
2019-Sep-21 22:05 288 3.3
2019-Sep-21 22:00 288 3.9
2019-Sep-21 21:50 288 1 gusting 2 3.9
2019-Sep-21 21:45 288 3.9
2019-Sep-21 21:35 288 0 gusting 2 3.9
2019-Sep-21 21:25 288 3.9
2019-Sep-21 21:20 288 3.9
2019-Sep-21 21:10 288 0 gusting 1 4.4
2019-Sep-21 21:05 288 4.4
2019-Sep-21 20:55 288 0 gusting 2 4.4
2019-Sep-21 20:50 288 0 gusting 3 4.4
2019-Sep-21 20:40 288 4.4
2019-Sep-21 20:35 288 0 gusting 3 4.4
2019-Sep-21 20:25 288 4.4
2019-Sep-21 20:20 288 4.4
2019-Sep-21 20:10 288 0 gusting 4 4.4
2019-Sep-21 20:00 288 1 gusting 3 4.4
2019-Sep-21 19:55 287 4.4
2019-Sep-21 19:50 287 0 gusting 3 4.4
2019-Sep-21 19:40 283 1 gusting 5 4.4
2019-Sep-21 19:30 281 0 gusting 3 4.4
2019-Sep-21 19:25 281 0 gusting 4 4.4
2019-Sep-21 19:20 281 0 gusting 5 4.4
2019-Sep-21 19:10 278 1 gusting 3 4.4
2019-Sep-21 19:05 274 1 gusting 3 4.4
2019-Sep-21 18:55 270 1 gusting 5 4.4
2019-Sep-21 18:45 312 0 gusting 3 5.0
2019-Sep-21 18:40 310 1 gusting 3 5.0
2019-Sep-21 18:30 309 0 gusting 2 5.0
2019-Sep-21 18:25 309 5.0
2019-Sep-21 18:15 309 1 gusting 3 5.0
2019-Sep-21 18:05 315 1 gusting 3 5.0
2019-Sep-21 18:00 315 0 gusting 2 5.6
2019-Sep-21 17:55 315 0 gusting 1 5.6
2019-Sep-21 17:45 315 0 gusting 2 5.6
2019-Sep-21 17:35 315 0 gusting 2 5.6
2019-Sep-21 17:30 315 0 gusting 2 6.1
2019-Sep-21 17:20 315 6.1
2019-Sep-21 17:10 315 0 gusting 2 6.1
2019-Sep-21 17:05 315 0 gusting 2 6.7
2019-Sep-21 17:00 315 1 gusting 2 6.7
2019-Sep-21 16:55 315 0 gusting 3 6.7
2019-Sep-21 16:50 315 1 gusting 3 7.2
2019-Sep-21 16:40 315 7.2
2019-Sep-21 16:35 315 7.2
2019-Sep-21 16:25 315 0 gusting 1 7.8
2019-Sep-21 16:20 315 7.8
2019-Sep-21 16:10 315 7.8
2019-Sep-21 16:05 315 7.8
2019-Sep-21 16:00 315 7.8
2019-Sep-21 15:50 315 7.8
2019-Sep-21 15:40 315 1 gusting 3 7.8
2019-Sep-21 15:30 314 0 gusting 2 8.3
2019-Sep-21 15:25 314 0 gusting 2 8.3
2019-Sep-21 15:15 315 0 gusting 2 8.3
2019-Sep-21 15:10 314 0 gusting 3 8.3
2019-Sep-21 15:00 315 0 gusting 2 8.3
2019-Sep-21 14:55 315 1 gusting 2 8.9
2019-Sep-21 14:45 315 0 gusting 4 8.9
2019-Sep-21 14:40 315 1 gusting 4 8.9
2019-Sep-21 14:30 311 1 gusting 3 8.9
2019-Sep-21 14:25 312 1 gusting 3 8.9
2019-Sep-21 14:15 311 1 gusting 3 8.9
2019-Sep-21 14:10 289 0 gusting 2 8.9
2019-Sep-21 14:00 288 0 gusting 3 8.9
2019-Sep-21 13:55 288 0 gusting 3 9.4
2019-Sep-21 13:45 292 1 gusting 3 9.4
2019-Sep-21 13:40 077 0 gusting 3 9.4
2019-Sep-21 13:30 278 9.4
2019-Sep-21 13:25 278 1 gusting 3 9.4
2019-Sep-21 13:15 278 8.9
2019-Sep-21 13:10 278 0 gusting 2 8.9
2019-Sep-21 13:00 277 0 gusting 3 8.9
2019-Sep-21 12:55 278 0 gusting 1 8.9
2019-Sep-21 12:45 278 8.9
2019-Sep-21 12:40 278 0 gusting 1 8.9
2019-Sep-21 12:30 278 0 gusting 2 8.3
2019-Sep-21 12:25 277 8.3
2019-Sep-21 12:20 277 8.3
2019-Sep-21 12:15 277 0 gusting 1 8.3
2019-Sep-21 12:10 277 8.3
2019-Sep-21 12:00 277 0 gusting 3 8.3
2019-Sep-21 11:55 280 1 gusting 3 8.3
2019-Sep-21 11:50 301 0 gusting 2 8.3
2019-Sep-21 11:40 295 1 gusting 3 8.9
2019-Sep-21 11:30 279 8.9
2019-Sep-21 11:25 279 0 gusting 1 8.9
2019-Sep-21 11:15 279 0 gusting 3 8.9
2019-Sep-21 11:05 279 0 gusting 3 8.3
2019-Sep-21 11:00 278 0 gusting 3 8.3
2019-Sep-21 10:55 278 8.3
2019-Sep-21 10:45 278 8.9
2019-Sep-21 10:40 278 8.9
2019-Sep-21 10:30 278 8.9
2019-Sep-21 10:20 278 0 gusting 2 8.9
2019-Sep-21 10:15 278 8.3
2019-Sep-21 10:05 278 1 gusting 3 8.3
2019-Sep-21 10:00 281 0 gusting 3 8.3
2019-Sep-21 09:50 124 8.3
2019-Sep-21 09:45 124 0 gusting 2 8.3
2019-Sep-21 09:35 124 8.3
2019-Sep-21 09:30 124 0 gusting 1 8.3
2019-Sep-21 09:20 124 7.8
2019-Sep-21 09:15 124 7.8
2019-Sep-21 09:05 124 0 gusting 1 7.8
2019-Sep-21 09:00 124 7.8
2019-Sep-21 08:55 124 7.8
2019-Sep-21 08:50 124 7.8
2019-Sep-21 08:40 124 0 gusting 2 7.8
2019-Sep-21 08:35 124 0 gusting 2 7.8
2019-Sep-21 08:25 124 7.2
2019-Sep-21 08:15 124 7.2
2019-Sep-21 08:05 124 0 gusting 2 7.2
2019-Sep-21 08:00 124 0 gusting 2 7.2
2019-Sep-21 07:55 124 7.2
2019-Sep-21 07:50 124 1 gusting 2 7.2
2019-Sep-21 07:40 124 6.7
2019-Sep-21 07:30 124 0 gusting 3 6.7
2019-Sep-21 07:25 124 1 gusting 4 6.7
2019-Sep-21 07:15 124 1 gusting 3 6.7
2019-Sep-21 07:10 124 1 gusting 3 6.7
2019-Sep-21 07:00 124 1 gusting 3 6.1
2019-Sep-21 06:55 124 2 gusting 3 6.1
2019-Sep-21 06:50 123 6.1
2019-Sep-21 06:40 123 0 gusting 3 6.1
2019-Sep-21 06:30 123 5.6
2019-Sep-21 06:25 123 5.6
2019-Sep-21 06:15 123 5.6
2019-Sep-21 06:10 123 5.6
2019-Sep-21 06:00 124 0 gusting 3 5.0
2019-Sep-21 05:55 124 0 gusting 2 5.0
2019-Sep-21 05:45 124 0 gusting 3 5.0
2019-Sep-21 05:40 124 0 gusting 3 5.0
2019-Sep-21 05:30 127 0 gusting 3 4.4
2019-Sep-21 05:25 127 1 gusting 3 4.4
2019-Sep-21 05:15 128 0 gusting 2 4.4
2019-Sep-21 05:05 151 0 gusting 2 4.4
2019-Sep-21 04:55 157 1 gusting 3 4.4
2019-Sep-21 04:45 175 0 gusting 2 4.4
2019-Sep-21 04:40 195 0 gusting 2 3.9
2019-Sep-21 04:30 263 0 gusting 2 3.9
2019-Sep-21 04:20 263 3.9
2019-Sep-21 04:15 263 3.9
2019-Sep-21 04:05 263 3.9
2019-Sep-21 04:00 263 0 gusting 2 4.4
2019-Sep-21 03:50 263 0 gusting 2 4.4
2019-Sep-21 03:45 263 0 gusting 1 4.4
2019-Sep-21 03:35 263 4.4
2019-Sep-21 03:30 263 4.4
2019-Sep-21 03:20 263 4.4
2019-Sep-21 03:10 263 3.9
2019-Sep-21 03:05 263 3.9
2019-Sep-21 02:55 263 3.9
2019-Sep-21 02:45 263 3.9
2019-Sep-21 02:35 263 3.9
2019-Sep-21 02:30 263 3.9
2019-Sep-21 02:20 263 3.9
2019-Sep-21 02:15 263 3.9
2019-Sep-21 02:05 263 3.9
2019-Sep-21 02:00 263 3.9
2019-Sep-21 01:55 263 3.9
2019-Sep-21 01:50 263 3.9
2019-Sep-21 01:45 263 3.9
2019-Sep-21 01:35 263 3.9
2019-Sep-21 01:25 263 3.9
2019-Sep-21 01:20 263 3.9
2019-Sep-21 01:10 263 0 gusting 1 3.9
2019-Sep-21 01:05 263 3.9
2019-Sep-21 00:55 263 3.9
2019-Sep-21 00:50 263 3.9
2019-Sep-21 00:40 263 3.9
2019-Sep-21 00:25 263 3.9
2019-Sep-21 00:20 263 3.9
2019-Sep-21 00:15 263 3.9
2019-Sep-21 00:05 263 3.9
2019-Sep-21 00:00 263 3.9
2019-Sep-20 23:50 263 3.9
2019-Sep-20 23:45 263 3.9
2019-Sep-20 23:35 263 3.9
2019-Sep-20 23:25 263 3.9
2019-Sep-20 23:20 263 3.9
2019-Sep-20 23:15 263 3.9
2019-Sep-20 23:05 263 3.9
2019-Sep-20 23:00 263 3.9
2019-Sep-20 22:50 263 3.9
2019-Sep-20 22:45 263 3.9
2019-Sep-20 22:35 263 3.9
2019-Sep-20 22:25 263 3.9
2019-Sep-20 22:20 263 3.9
2019-Sep-20 22:10 263 3.9
2019-Sep-20 22:05 263 3.9
2019-Sep-20 22:00 263 3.9
2019-Sep-20 21:50 263 0 gusting 1 3.9
2019-Sep-20 21:45 263 3.9
2019-Sep-20 21:35 263 3.9
2019-Sep-20 21:30 263 3.9
2019-Sep-20 21:20 263 3.9
2019-Sep-20 21:15 263 3.9
2019-Sep-20 21:05 263 3.9
2019-Sep-20 21:00 263 3.9
2019-Sep-20 20:50 263 3.9
2019-Sep-20 20:40 263 0 gusting 1 3.9
2019-Sep-20 20:35 263 3.9
2019-Sep-20 20:25 263 0 gusting 1 4.4
2019-Sep-20 20:20 263 4.4
2019-Sep-20 20:10 263 0 gusting 1 4.4
2019-Sep-20 20:05 263 4.4
2019-Sep-20 20:00 263 4.4
2019-Sep-20 19:55 263 4.4
2019-Sep-20 19:50 263 4.4
2019-Sep-20 19:40 263 4.4
2019-Sep-20 19:30 263 4.4
2019-Sep-20 19:25 263 4.4
2019-Sep-20 19:15 263 5.0
2019-Sep-20 19:10 263 5.0
2019-Sep-20 19:00 263 5.0
2019-Sep-20 18:55 263 5.0
2019-Sep-20 18:45 263 5.0
2019-Sep-20 18:40 263 5.6
2019-Sep-20 18:30 263 5.6
2019-Sep-20 18:25 263 5.6
2019-Sep-20 18:15 263 5.6
2019-Sep-20 18:10 263 5.6
2019-Sep-20 18:00 263 6.1
2019-Sep-20 17:55 263 6.1
2019-Sep-20 17:50 263 6.1
2019-Sep-20 17:40 263 0 gusting 1 6.1
2019-Sep-20 17:30 263 6.7
2019-Sep-20 17:25 263 6.7
2019-Sep-20 17:15 263 6.7
2019-Sep-20 17:10 263 6.7
2019-Sep-20 17:00 263 7.2
2019-Sep-20 16:55 263 7.2
2019-Sep-20 16:50 263 7.2
2019-Sep-20 16:45 263 7.2
2019-Sep-20 16:40 263 7.8
2019-Sep-20 16:30 263 7.8
2019-Sep-20 16:20 263 7.8
2019-Sep-20 16:15 263 7.8
2019-Sep-20 16:10 263 7.8
2019-Sep-20 16:00 263 8.3
2019-Sep-20 15:55 263 8.3
2019-Sep-20 15:45 263 8.3
2019-Sep-20 15:40 263 8.3
2019-Sep-20 15:30 263 1 gusting 3 8.9
2019-Sep-20 15:25 263 8.9
2019-Sep-20 15:15 263 8.9
2019-Sep-20 15:10 263 8.9
2019-Sep-20 15:00 263 0 gusting 1 8.9
2019-Sep-20 14:50 263 8.9
2019-Sep-20 14:45 263 1 gusting 2 8.9
2019-Sep-20 14:40 263 0 gusting 3 8.9
2019-Sep-20 14:30 263 0 gusting 3 9.4
2019-Sep-20 14:20 253 0 gusting 4 9.4
2019-Sep-20 14:15 253 9.4
2019-Sep-20 14:05 263 1 gusting 6 9.4
2019-Sep-20 14:00 260 2 gusting 6 9.4
2019-Sep-20 13:55 278 9.4
2019-Sep-20 13:45 263 2 gusting 4 9.4
2019-Sep-20 13:35 289 1 gusting 6 9.4
2019-Sep-20 13:30 259 2 gusting 6 9.4
2019-Sep-20 13:20 274 3 gusting 6 9.4
2019-Sep-20 13:15 292 4 gusting 8 9.4
2019-Sep-20 13:05 315 3 gusting 8 10.0
2019-Sep-20 13:00 277 0 gusting 6 10.0
2019-Sep-20 12:50 280 2 gusting 5 10.0
2019-Sep-20 12:45 274 1 gusting 4 10.0
2019-Sep-20 12:35 280 1 gusting 4 10.0
2019-Sep-20 12:30 292 1 gusting 5 10.0
2019-Sep-20 12:20 321 2 gusting 5 10.0
2019-Sep-20 12:15 282 2 gusting 5 10.0
2019-Sep-20 12:05 265 2 gusting 6 9.4
2019-Sep-20 12:00 299 2 gusting 6 10.0
2019-Sep-20 11:55 295 2 gusting 6 10.0
2019-Sep-20 11:45 286 2 gusting 6 10.0
2019-Sep-20 11:35 304 2 gusting 6 10.0
2019-Sep-20 11:30 308 2 gusting 6 10.0
2019-Sep-20 11:20 286 1 gusting 6 10.0
2019-Sep-20 11:15 320 2 gusting 6 10.0
2019-Sep-20 11:05 324 2 gusting 4 10.0
2019-Sep-20 11:00 042 2 gusting 6 10.0
2019-Sep-20 10:50 288 2 gusting 7 9.4
2019-Sep-20 10:45 282 3 gusting 7 9.4
2019-Sep-20 10:35 308 2 gusting 6 8.9
2019-Sep-20 10:30 274 3 gusting 6 8.9
2019-Sep-20 10:20 306 3 gusting 7 8.9
2019-Sep-20 10:15 286 2 gusting 7 8.9
2019-Sep-20 10:05 293 3 gusting 6 8.9
2019-Sep-20 10:00 293 2 gusting 6 8.9
2019-Sep-20 09:50 255 3 gusting 6 8.9
2019-Sep-20 09:45 278 2 gusting 6 8.9
2019-Sep-20 09:35 272 2 gusting 5 8.3
2019-Sep-20 09:25 312 1 gusting 6 8.3
2019-Sep-20 09:20 289 3 gusting 6 8.3
2019-Sep-20 09:10 294 2 gusting 6 8.3
2019-Sep-20 09:05 286 1 gusting 5 8.3
2019-Sep-20 08:55 264 2 gusting 5 8.3
2019-Sep-20 08:45 272 3 gusting 6 7.8
2019-Sep-20 08:40 276 0 gusting 5 7.8
2019-Sep-20 08:30 249 0 gusting 6 7.8
2019-Sep-20 08:20 293 1 gusting 5 7.8
2019-Sep-20 08:15 316 1 gusting 6 7.8
2019-Sep-20 08:05 298 1 gusting 6 7.2
2019-Sep-20 08:00 298 1 gusting 6 7.2
2019-Sep-20 07:50 289 1 gusting 6 7.2
2019-Sep-20 07:45 290 2 gusting 4 6.7
2019-Sep-20 07:35 278 2 gusting 5 6.1
2019-Sep-20 07:30 284 2 gusting 4 6.1
2019-Sep-20 07:20 291 2 gusting 5 5.0
2019-Sep-20 07:15 266 5.0
2019-Sep-20 07:05 268 0 gusting 2 3.9
2019-Sep-20 07:00 284 0 gusting 1 3.3
2019-Sep-20 06:50 284 2.8
2019-Sep-20 06:45 288 0 gusting 1 2.2
2019-Sep-20 06:35 294 1.7
2019-Sep-20 06:30 310 1.7
2019-Sep-20 06:20 345 0 gusting 1 1.1
2019-Sep-20 06:15 331 0 gusting 1 0.6
2019-Sep-20 06:05 331 -0.0
2019-Sep-20 06:00 331 -0.6
2019-Sep-20 05:50 331 -1.1
2019-Sep-20 05:45 331 -1.7
2019-Sep-20 05:35 331 -2.2
2019-Sep-20 05:30 331 -2.2
2019-Sep-20 05:20 331 -2.8
2019-Sep-20 05:15 331 -2.8
2019-Sep-20 05:05 331 -2.8
2019-Sep-20 05:00 331 -2.8
2019-Sep-20 04:55 331 -3.3
2019-Sep-20 04:45 331 -3.3
2019-Sep-20 04:40 331 -3.3
2019-Sep-20 04:30 331 -3.3
2019-Sep-20 04:25 331 -3.3
2019-Sep-20 04:15 331 -3.3
2019-Sep-20 04:10 331 -3.3
2019-Sep-20 04:00 331 -2.8
2019-Sep-20 03:55 331 -2.8
2019-Sep-20 03:50 331 -2.8
2019-Sep-20 03:40 331 0 gusting 1 -2.8
2019-Sep-20 03:30 331 -2.8
2019-Sep-20 03:25 331 -2.8
2019-Sep-20 03:15 331 -2.8
2019-Sep-20 03:10 331 -2.8
2019-Sep-20 03:00 331 -2.8
2019-Sep-20 02:50 331 -2.2
2019-Sep-20 02:40 331 -2.2
2019-Sep-20 02:35 331 -2.2
2019-Sep-20 02:25 331 -2.2
2019-Sep-20 02:20 331 -2.2
2019-Sep-20 02:10 331 -1.7
2019-Sep-20 02:05 331 -1.7
2019-Sep-20 02:00 331 -1.7
2019-Sep-20 01:55 331 -1.7
2019-Sep-20 01:50 331 -1.7
2019-Sep-20 01:40 331 -1.1
2019-Sep-20 01:30 331 -1.1
2019-Sep-20 01:25 331 -1.1
2019-Sep-20 01:15 331 -1.1
2019-Sep-20 01:10 331 -1.1
2019-Sep-20 01:00 331 -0.6